Weather History for Clinton, IA

Change the Weather History Date:

Friday, January 25, 2013

  Actual Average Record
Temperature  
Mean Temperature 25 °F -  
Max Temperature 35 °F 31 °F 61 °F (1981)
Min Temperature 14 °F 12 °F -18 °F (2008)
Degree Days  
Heating Degree Days 40    
Moisture  
Dew Point 11 °F    
Average Humidity 60    
Maximum Humidity 80    
Minimum Humidity 38    
Precipitation  
Precipitation 0.00 in - - ()
Sea Level Pressure  
Sea Level Pressure 30.13 in    
Wind  
Wind Speed 14 mph (West)    
Max Wind Speed 26 mph    
Max Gust Speed 33 mph    
Visibility 10 miles    
Events      
Averages and records for this station are not official NWS values.
T = Trace of Precipitation, MM = Missing Value Source: NWS Daily Summary

Daily Weather History Graph

Daily Weather History Graph

Search for Another Location

Airport:

Trip Planner

Search our weather history database for the weather conditions in past years. The results will help you decide how hot, cold, wet, or windy it might be!

Date:

Astronomy

Jan. 25, 2013 Rise Set
Actual Time 7:19 AM CST 5:08 PM CST
Civil Twilight 6:49 AM CST 5:38 PM CST
Nautical Twilight 6:16 AM CST 6:11 PM CST
Astronomical Twilight 5:43 AM CST 6:44 PM CST
Moon 4:05 PM CST (1/25) 5:59 AM CST (1/25)
Length of Visible Light 10h 48m
Length of Day
9h 48m
Waxing Gibbous, 98% of the Moon is Illuminated
Jan 25
Waxing Gibbous
Jan 26
Full
Feb 3
Last Quarter
Feb 10
New
Feb 17
First Quarter

Hourly Weather History & Observations

Time (CST) Temp. Windchill Dew Point Humidity Pressure Visibility Wind Dir Wind Speed Gust Speed Precip Events Conditions
12:15 AM 21.2 °F 7.3 °F 5.0 °F 50% 30.28 in 10.0 mi SE 16.1 mph - N/A   Clear
12:35 AM 21.2 °F 7.8 °F 5.0 °F 50% 30.28 in 10.0 mi SSE 15.0 mph 18.4 mph N/A   Partly Cloudy
12:55 AM 21.2 °F 10.1 °F 5.0 °F 50% 30.27 in 10.0 mi SSE 10.4 mph - N/A   Clear
1:15 AM 21.2 °F 8.3 °F 5.0 °F 50% 30.26 in 10.0 mi SE 13.8 mph - N/A   Clear
1:35 AM 21.2 °F 9.5 °F 5.0 °F 50% 30.25 in 10.0 mi SE 11.5 mph - N/A   Scattered Clouds
1:55 AM 21.2 °F 9.5 °F 5.0 °F 50% 30.25 in 10.0 mi SE 11.5 mph - N/A   Overcast
2:15 AM 21.2 °F 9.5 °F 6.8 °F 54% 30.24 in 10.0 mi SE 11.5 mph - N/A   Mostly Cloudy
2:35 AM 21.2 °F 7.8 °F 6.8 °F 54% 30.22 in 10.0 mi SE 15.0 mph - N/A   Scattered Clouds
2:55 AM 19.4 °F 6.0 °F 8.6 °F 63% 30.20 in 10.0 mi SSE 13.8 mph 21.9 mph N/A   Clear
3:15 AM 19.4 °F 7.9 °F 10.4 °F 68% 30.20 in 10.0 mi SSE 10.4 mph - N/A   Clear
3:35 AM 19.4 °F 7.2 °F 10.4 °F 68% 30.18 in 10.0 mi SSE 11.5 mph 16.1 mph N/A   Clear
3:55 AM 19.4 °F 7.2 °F 10.4 °F 68% 30.17 in 10.0 mi SSE 11.5 mph - N/A   Scattered Clouds
4:15 AM 19.4 °F 9.5 °F 10.4 °F 68% 30.17 in 10.0 mi SSE 8.1 mph - N/A   Scattered Clouds
4:35 AM 19.4 °F 12.8 °F 10.4 °F 68% 30.18 in 9.0 mi South 4.6 mph - N/A   Mostly Cloudy
4:55 AM 19.4 °F 9.5 °F 12.2 °F 74% 30.17 in 10.0 mi South 8.1 mph - N/A   Overcast
5:15 AM 19.4 °F 8.6 °F 12.2 °F 74% 30.17 in 10.0 mi SSW 9.2 mph - N/A   Mostly Cloudy
5:35 AM 19.4 °F 9.5 °F 14.0 °F 80% 30.16 in 10.0 mi South 8.1 mph - N/A   Overcast
5:55 AM 19.4 °F 9.5 °F 14.0 °F 80% 30.14 in 10.0 mi South 8.1 mph - N/A   Scattered Clouds
6:15 AM 19.4 °F 11.5 °F 14.0 °F 80% 30.14 in 10.0 mi South 5.8 mph - N/A   Scattered Clouds
6:35 AM 19.4 °F 11.5 °F 14.0 °F 80% 30.13 in 10.0 mi South 5.8 mph - N/A   Mostly Cloudy
6:55 AM 19.4 °F 11.5 °F 14.0 °F 80% 30.14 in 10.0 mi South 5.8 mph - N/A   Mostly Cloudy
7:35 AM 19.4 °F 10.4 °F 14.0 °F 80% 30.12 in 10.0 mi South 6.9 mph - N/A   Mostly Cloudy
7:55 AM 19.4 °F 7.9 °F 14.0 °F 80% 30.11 in 10.0 mi SSW 10.4 mph - N/A   Overcast
8:15 AM 19.4 °F 8.6 °F 14.0 °F 80% 30.11 in 10.0 mi SSW 9.2 mph - N/A   Overcast
8:35 AM 21.2 °F 11.7 °F 15.8 °F 80% 30.11 in 10.0 mi SW 8.1 mph - N/A   Overcast
8:55 AM 21.2 °F 10.1 °F 15.8 °F 80% 30.11 in 10.0 mi WSW 10.4 mph - N/A   Overcast
9:15 AM 23.0 °F 10.1 °F 15.8 °F 74% 30.10 in 10.0 mi WSW 15.0 mph - N/A   Overcast
9:35 AM 24.8 °F 11.9 °F 15.8 °F 69% 30.09 in 10.0 mi WSW 16.1 mph - N/A   Overcast
9:55 AM 24.8 °F 11.9 °F 12.2 °F 59% 30.08 in 10.0 mi WSW 16.1 mph - N/A   Overcast
10:15 AM 26.6 °F 13.8 °F 12.2 °F 55% 30.08 in 10.0 mi West 17.3 mph 20.7 mph N/A   Partly Cloudy
10:35 AM 26.6 °F 13.4 °F 12.2 °F 55% 30.08 in 10.0 mi West 18.4 mph 24.2 mph N/A   Clear
10:55 AM 28.4 °F 17.5 °F 12.2 °F 51% 30.08 in 10.0 mi West 13.8 mph - N/A   Clear
11:15 AM 28.4 °F 16.2 °F 10.4 °F 47% 30.06 in 10.0 mi West 17.3 mph 25.3 mph N/A   Clear
11:35 AM 28.4 °F 16.6 °F 12.2 °F 51% 30.05 in 10.0 mi WSW 16.1 mph 24.2 mph N/A   Clear
11:55 AM 30.2 °F 18.1 °F 12.2 °F 47% 30.03 in 10.0 mi West 18.4 mph 24.2 mph N/A   Clear
12:15 PM 30.2 °F 17.4 °F 12.2 °F 47% 30.02 in 10.0 mi West 20.7 mph 24.2 mph N/A   Clear
12:35 PM 30.2 °F 18.5 °F 12.2 °F 47% 30.01 in 10.0 mi West 17.3 mph 20.7 mph N/A   Clear
1:15 PM 33.8 °F 21.9 °F 12.2 °F 41% 30.00 in 10.0 mi West 21.9 mph 27.6 mph N/A   Clear
1:35 PM 33.8 °F 22.2 °F 12.2 °F 41% 30.00 in 10.0 mi West 20.7 mph 27.6 mph N/A   Clear
1:55 PM 35.6 °F 23.7 °F 12.2 °F 38% 30.00 in 10.0 mi West 24.2 mph 31.1 mph N/A   Clear
2:15 PM 35.6 °F 23.2 °F 14.0 °F 41% 30.01 in 10.0 mi WNW 26.5 mph 33.4 mph N/A   Clear
2:35 PM 35.6 °F 23.2 °F 14.0 °F 41% 30.01 in 10.0 mi WNW 26.5 mph 33.4 mph N/A   Clear
2:55 PM 33.8 °F 21.9 °F 15.8 °F 48% 30.02 in 10.0 mi WNW 21.9 mph 31.1 mph N/A   Clear
3:15 PM 33.8 °F 21.0 °F 17.6 °F 52% 30.02 in 10.0 mi NW 25.3 mph 31.1 mph N/A   Scattered Clouds
3:35 PM 30.2 °F 16.5 °F 15.8 °F 55% 30.03 in 10.0 mi WNW 24.2 mph 31.1 mph N/A   Mostly Cloudy
3:55 PM 30.2 °F 17.1 °F 15.8 °F 55% 30.04 in 10.0 mi NW 21.9 mph 29.9 mph N/A   Mostly Cloudy
4:15 PM 30.2 °F 17.8 °F 17.6 °F 60% 30.05 in 10.0 mi NW 19.6 mph 24.2 mph N/A   Mostly Cloudy
4:35 PM 28.4 °F 14.4 °F 15.8 °F 59% 30.05 in 10.0 mi WNW 23.0 mph 26.5 mph N/A   Mostly Cloudy
4:55 PM 28.4 °F 16.6 °F 15.8 °F 59% 30.05 in 10.0 mi WNW 16.1 mph 25.3 mph N/A   Partly Cloudy
5:15 PM 26.6 °F 15.2 °F 15.8 °F 64% 30.06 in 10.0 mi WNW 13.8 mph - N/A   Clear
5:35 PM 26.6 °F 14.7 °F 15.8 °F 64% 30.06 in 10.0 mi WNW 15.0 mph - N/A   Clear
5:55 PM 26.6 °F 13.4 °F 15.8 °F 64% 30.07 in 10.0 mi NW 18.4 mph - N/A   Clear
6:15 PM 26.6 °F 13.4 °F 12.2 °F 55% 30.09 in 10.0 mi NW 18.4 mph 25.3 mph N/A   Clear
6:35 PM 24.8 °F 9.6 °F 12.2 °F 59% 30.10 in 10.0 mi NW 23.0 mph - N/A   Clear
6:55 PM 24.8 °F 12.9 °F 6.8 °F 46% 30.12 in 10.0 mi NNW 13.8 mph - N/A   Clear
7:15 PM 21.2 °F 7.8 °F 6.8 °F 54% 30.13 in 10.0 mi NW 15.0 mph - N/A   Clear
7:35 PM 21.2 °F 6.8 °F 6.8 °F 54% 30.14 in 10.0 mi NW 17.3 mph - N/A   Clear
7:55 PM 21.2 °F 7.8 °F 5.0 °F 50% 30.15 in 10.0 mi NW 15.0 mph - N/A   Clear
8:15 PM 19.4 °F 6.6 °F 5.0 °F 54% 30.15 in 10.0 mi NW 12.7 mph 17.3 mph N/A   Clear
8:35 PM 19.4 °F 7.2 °F 5.0 °F 54% 30.16 in 10.0 mi NW 11.5 mph - N/A   Clear
8:55 PM 17.6 °F 4.3 °F 6.8 °F 63% 30.16 in 10.0 mi NNW 12.7 mph - N/A   Clear
9:15 PM 17.6 °F 4.3 °F 6.8 °F 63% 30.17 in 10.0 mi NNW 12.7 mph - N/A   Clear
9:35 PM 17.6 °F 4.3 °F 5.0 °F 58% 30.19 in 10.0 mi NNW 12.7 mph 19.6 mph N/A   Clear
9:55 PM 17.6 °F 3.7 °F 5.0 °F 58% 30.19 in 10.0 mi NNW 13.8 mph - N/A   Clear
10:15 PM 17.6 °F 5.0 °F 5.0 °F 58% 30.21 in 10.0 mi NNW 11.5 mph - N/A   Clear
10:35 PM 15.8 °F 4.2 °F 5.0 °F 62% 30.22 in 10.0 mi NNW 9.2 mph - N/A   Clear
10:55 PM 15.8 °F 4.2 °F 3.2 °F 58% 30.23 in 10.0 mi NNW 9.2 mph - N/A   Clear
11:15 PM 15.8 °F 4.2 °F 5.0 °F 62% 30.24 in 10.0 mi NW 9.2 mph - N/A   Clear
11:35 PM 15.8 °F 2.7 °F 5.0 °F 62% 30.26 in 10.0 mi NNW 11.5 mph - N/A   Clear
11:55 PM 14.0 °F 0.5 °F 3.2 °F 62% 30.26 in 10.0 mi NNW 11.5 mph - N/A   Clear